Henderson, KY

2:29 AM CST on November 17, 2019 (GMT -0600)
Henderson City-County

Weather History for KEHR - September, 2019

Change the Weather History Date:

Friday, September 20, 2019

  Actual Average Record
Temperature  
Mean Temperature 78 °F -  
Max Temperature 89 °F 80 °F 99 °F (1935)
Min Temperature 68 °F 58 °F 40 °F (1956)
Cooling Degree Days 14    
Growing Degree Days 28 (Base 50)    
Moisture  
Dew Point 67 °F    
Average Humidity 71    
Maximum Humidity 96    
Minimum Humidity 50    
Precipitation  
Precipitation 0.00 in - - ()
Sea Level Pressure  
Sea Level Pressure 30.14 in    
Wind  
Wind Speed 5 mph (SSW)    
Max Wind Speed 13 mph    
Max Gust Speed 18 mph    
Visibility 10 miles    
Events      
Averages and records for this station are not official NWS values.
T = Trace of Precipitation, MM = Missing Value Source: NWS Daily Summary

Daily Weather History Graph

Daily Weather History Graph

Search for Another Location

Airport or City:

Astronomy

Sep. 20, 2019 Rise Set
Actual Time 6:36 AM CDT 6:51 PM CDT
Civil Twilight 6:10 AM CDT 7:17 PM CDT
Nautical Twilight 5:39 AM CDT 7:47 PM CDT
Astronomical Twilight 5:08 AM CDT 8:19 PM CDT
Moon 10:46 PM CDT (9/20) 12:35 PM CDT (9/20)
Length of Visible Light 13h 06m
Length of Day
12h 14m
Waning Gibbous, 65% of the Moon is Illuminated
Sep 20
Waning Gibbous
Sep 21
Last Quarter
Sep 28
New
Oct 5
First Quarter
Oct 13
Full

Hourly Weather History & Observations

Time (CDT) Temp. Heat Index Dew Point Humidity Pressure Visibility Wind Dir Wind Speed Gust Speed Precip Events Conditions
12:56 AM 70.0 °F - 66.0 °F 87% 30.08 in 10.0 mi SW 4.6 mph - N/A   Clear
1:56 AM 71.1 °F - 66.0 °F 84% 30.09 in 10.0 mi Calm Calm - N/A   Clear
2:56 AM 70.0 °F - 66.9 °F 90% 30.10 in 10.0 mi SSW 3.5 mph - N/A   Clear
3:56 AM 70.0 °F - 66.9 °F 90% 30.10 in 10.0 mi South 4.6 mph - N/A   Scattered Clouds
4:56 AM 68.0 °F - 66.0 °F 93% 30.11 in 10.0 mi ESE 3.5 mph - N/A   Clear
5:56 AM 68.0 °F - 66.9 °F 96% 30.13 in 10.0 mi Calm Calm - N/A   Clear
6:56 AM 70.0 °F - 68.0 °F 93% 30.15 in 9.0 mi South 4.6 mph - N/A   Mostly Cloudy
7:56 AM 73.9 °F - 68.0 °F 82% 30.17 in 10.0 mi South 6.9 mph - N/A   Clear
8:56 AM 77.0 °F - 66.0 °F 69% 30.18 in 10.0 mi SSW 10.4 mph 16.1 mph N/A   Clear
9:56 AM 81.0 °F 83.0 °F 66.0 °F 60% 30.17 in 10.0 mi SSW 12.7 mph 18.4 mph N/A   Clear
10:56 AM 84.0 °F 86.5 °F 66.9 °F 56% 30.17 in 10.0 mi SSW 6.9 mph - N/A   Clear
11:56 AM 86.0 °F 88.8 °F 66.9 °F 53% 30.17 in 10.0 mi SW 10.4 mph - N/A   Clear
12:56 PM 89.1 °F 92.9 °F 68.0 °F 50% 30.15 in 10.0 mi SW 9.2 mph 17.3 mph N/A   Clear
1:56 PM 88.0 °F 91.4 °F 68.0 °F 51% 30.14 in 10.0 mi SSW 9.2 mph - N/A   Clear
2:56 PM 89.1 °F 93.7 °F 69.1 °F 52% 30.13 in 10.0 mi SW 6.9 mph - N/A   Partly Cloudy
3:56 PM 89.1 °F 92.9 °F 68.0 °F 50% 30.12 in 10.0 mi SW 11.5 mph 18.4 mph N/A   Scattered Clouds
4:56 PM 88.0 °F 92.1 °F 69.1 °F 53% 30.11 in 10.0 mi SW 9.2 mph - N/A   Clear
5:56 PM 84.9 °F 87.6 °F 66.9 °F 55% 30.12 in 10.0 mi SSW 5.8 mph - N/A   Clear
6:56 PM 79.0 °F - 66.9 °F 66% 30.13 in 10.0 mi South 4.6 mph - N/A   Clear
7:56 PM 75.0 °F - 66.0 °F 73% 30.14 in 10.0 mi Calm Calm - N/A   Clear
8:56 PM 75.9 °F - 66.0 °F 71% 30.16 in 10.0 mi South 4.6 mph - N/A   Clear
9:56 PM 72.0 °F - 66.9 °F 84% 30.16 in 10.0 mi Calm Calm - N/A   Clear
10:56 PM 73.9 °F - 66.0 °F 76% 30.16 in 10.0 mi SSE 5.8 mph - N/A   Clear
11:56 PM 73.0 °F - 64.9 °F 76% 30.17 in 10.0 mi South 5.8 mph - N/A   Clear